Le Grand, CA (95333)

8:00 PM PDT on July 28, 2015 (GMT -0700)
Northeast Merced | | Change Station
CLOSE
Current Station
Personal Weather Station
Location: Merced, CA
Elevation: 154 ft
Nearby Weather Stations

Elev 154 ft 37.32 °N, 120.45 °W | Updated 7 seconds ago

Clear
Clear
91.3 °F
Feels Like 89 °F
N
1.1
Wind Variable Wind from West
Gusts 3.1 mph

Today
High -- | Low -- °F
--% Chance of Precip.
Yesterday
High -- | Low -- °F
Precip. -- in
6:02 AM 8:12 PM
Waxing Gibbous, 93% visible
Pressure 29.77 in
Visibility 10.0 miles
Clouds Clear
Heat Index 89 °F
Dew Point 56 °F
Humidity 30%
Rainfall 0.00 in
Snow Depth Not available.
UV 0 out of 12
Pollen 4.70 out of 12
Air Quality Not available.
Flu Activity Not available.
METAR KMCE 290253Z AUTO 33006KT 10SM CLR 33/10 A2977 RMK AO2 SLPNO T03280100 55001

More Conditions Fewer Conditions

Pressure 29.77 in
Visibility 10.0 miles
Clouds Clear
Heat Index 89 °F
Dew Point 56 °F
Humidity 30%
Rainfall 0.00 in
Snow Depth Not available.
UV 0 out of 12
Pollen 4.70 out of 12
Air Quality Not available.
Flu Activity Not available.
METAR KMCE 290253Z AUTO 33006KT 10SM CLR 33/10 A2977 RMK AO2 SLPNO T03280100 55001

More Conditions Fewer Conditions

A strong ridge of high pressure will aid in providing some of the warmest temperatures of the Summer thus far along the West Coast, while dangerously high heat index values up to 110 degrees will be possible from southern Iowa through northern Louisiana. Residents are urged to take precaution while working outside.

10-Day Weather Forecast

×

Almanac

Astronomy

Jul. 28, 2015 Rise Set
Actual Time
Civil Twilight
Nautical Twilight
Astronomical Twilight
Moon
Length of Visible Light
Length of Day
Tomorrow will be .
, % of the Moon is Illuminated

Today's Extremes

State Highs State Lows

Community

WunderPhotos

Upload Photos

1,842,020 photos uploaded!

WunderBlogs® & News

Nearby

Air Quality

  Air Quality AQ Index Pollutant
Not available.

Snow Depth

Station Depth Elevation

Earthquake Activity

City Distance Mag. Time & Date
Minimum magnitude displayed is 2.5.

Coastal Water Temperatures

Place Temperature

Stations

Nearby Weather Stations

Station Location Temp. Windchill Dew Point Humidity Wind Precip. Elev Updated Type